User: anonymous   Login
Location: Columbia
(38.9520°N, 92.3340°W)
Time: 20:28:25
(UTC-05:00)
Language:

SL-08 RB Rocket - Orbit

View from above orbital plane
View from above orbital plane
View from above satellite
View from above satellite

Ground track
Ground track

The orbit data is extracted from the following two-line orbital elements,

1 26387U 00033D   15208.13803241  .00000121  00000-0  29621-4 0  9998
2 26387 098.0604 275.5414 0026902 014.0161 040.1321 14.67935123806483
Epoch (UTC): 27 July 2015 03:18:46
Eccentricity: 0.0026902
inclination: 98.0604°
perigee height: 649 km
apogee height: 686 km
right ascension of ascending node: 275.5414°
argument of perigee: 14.0161°
revolutions per day: 14.67935123
mean anomaly at epoch: 40.1321°
orbit number at epoch: 80648

The dashed part of the orbit path shows where the satellite is in the earth's shadow,  

DLR